sat.trackr.live / text

‹ back to catalog

TIANQI-23

NORAD 57794 · 2023-135C

PAYLOAD ACTIVE UNKNOWN

§ Identity

Operator
Country
PRC
Launch date
2023-09-05
Launch site
SEAL
Launch vehicle
Mass (kg)
RCS (m²)

External: N2YO · Heavens-Above · Gunter

§ Orbital elements

Epoch: 2026-09-21T21:56:08.884608Z

Period
101.19 min
Inclination
49.9713°
Eccentricity
0.0013131
Mean motion
14.23084781 rev/d
Perigee alt
805.5 km
Apogee alt
824.4 km
Semi-major
7,193.1 km
B*
-2.4701e-5
RAAN
105.5947°
Arg perigee
238.0265°
Mean anomaly
121.9372°
Rev number
15,840

§ Raw data

TIANQI-231 57794U 23135C   26264.91399172 -.00000215  00000+0 -24701-4 0  99942 57794  49.9713 105.5947 0013131 238.0265 121.9372 14.23084781158404

JSON: /api/v1/satellites/57794 · /tle

For live sub-satellite position, see the globe view (requires WebGL).

§ Visibility from observer

Set your observer location to see the next 7 days of passes ≥ 10°. The values pass through the URL so the page stays shareable.

No JS? Fill the form by hand. The geolocation button needs JavaScript.

§ Radio — SatNOGS DB

ModeDescriptionDownlinkUplink
LoRa LoRa 400.450 MHz
LoRa LoRa telemetry 400.265 MHz

2 transmitters · refreshed weekly from db.satnogs.org